Location: Buckland
(65.9785°N, 161.1281°W)
Time: 04:31:36
(UTC+00:00)

Transit 4A - Pass Details

Date: 26 November 2020
Orbit: 864 x 980 km, 66.8° (Epoch: 26 January)

Event Time Altitude Azimuth Distance (km) Brightness Sun altitude
Rises 04:14:15 0° 308° (NW) 3,695 11.6 -17.4°
Reaches altitude 10° 04:17:11 10° 297° (WNW) 2,741 11.1 -17.7°
Maximum altitude 04:22:25 27° 242° (WSW) 1,770 10.1 -18.2°
Drops below altitude 10° 04:27:34 10° 187° (S) 2,693 10.5 -18.7°
Sets 04:30:26 0° 176° (S) 3,619 11.1 -19.0°
